Weather in Sytomino

Russia / Khanty-Mansi Autonomous Okrug — Yugra     61°18′14″N   71°17′41″E
temp.,
°C
wind,
m/s
gust,
m/s
humid.,
%
clouds,
%
prec.,
mm/h
press.,
hPa
HPBL,
m
14 may, fri
fri1423:00+8ne33425 0.0 102623
02:00+7sse334945 0.0 102522
05:00+6ssw5855100 0.0 1025170
08:00+13sw912450 0.0 1021496
11:00+17sw11164716 0.0 1017719
14:00+26w1216360 0.0 10142209
17:00+26wnw813325 0.0 10121109
20:00+22nw574654 0.1 1012125
15 may, sat
sat1523:00+17w586411 0.3 1013121
02:00+15w457953 0.3 101263
05:00+15wnw3678100 0.3 1012119
08:00+17nne446898 0.0 1013681
11:00+17ene4361100 0.0 1014677
14:00+19e1158100 0.1 1014586
17:00+18n7874100 2.9 1012621
20:00+16nw1276100 2.8 1012295
16 may, sun
sun1623:00+14ne129016 2.8 101213
02:00+12e119392 0.1 101245
05:00+10ne6681100 1.3 1013291
08:00+8ne557899 0.3 1015392
11:00+11ene446738 0.3 1017685
14:00+14ne1257100 0.0 10171193
17:00+16sw0254100 0.0 10161235
20:00+15ese2360100 0.0 1015185
17 may, mon
mon1723:00+13ese2377100 1.3 1015184
02:00+13sse2383100 0.1 1013131
05:00+13sse238796 0.1 1012165
08:00+15s118170 0.0 1011386
11:00+18wsw3470100 0.1 1009876
14:00+21w8105995 0.1 10081462
17:00+16wnw41181100 11.0 1006681
20:00+15n458676 0.6 1007287
18 may, tue
tue1823:00+11ne568895 0.7 1008261
02:00+9ne7987100 0.5 1009408
05:00+9ne6787100 0.6 1011471
08:00+8ne5786100 0.1 1012460
11:00+9ne5680100 0.2 1013674
14:00+9ne5673100 0.1 1014604
17:00+12nne6752100 0.1 10151482
20:00+10nne475214 0.0 1017112